Franklin, NC

7:55 PM EDT on April 27, 2017 (GMT -0400)
Franklin

Weather History for K1A5 - January, 2005

Change the Weather History Date:

Thursday, January 6, 2005

  Actual Average (KTOC) Record (KTOC)
Temperature  
Mean Temperature 55 °F -  
Max Temperature 66 °F 50 °F 58 °F (2015)
Min Temperature 44 °F 32 °F 12 °F (2014)
Degree Days  
Heating Degree Days 10    
Growing Degree Days 5 (Base 50)    
Moisture  
Dew Point 48 °F    
Average Humidity 73    
Maximum Humidity 94    
Minimum Humidity 51    
Precipitation  
Precipitation 0.05 in - - ()
Sea Level Pressure  
Sea Level Pressure 29.95 in    
Wind  
Wind Speed 3 mph (East)    
Max Wind Speed 13 mph    
Max Gust Speed 17 mph    
Visibility 10 miles    
Events Rain    
Averages and records for this station are not official NWS values.
T = Trace of Precipitation, MM = Missing Value Source: NWS Daily Summary

Daily Weather History Graph

Daily Weather History Graph

Search for Another Location

Airport or City:

Trip Planner

Search our weather history database for the weather conditions in past years. The results will help you decide how hot, cold, wet, or windy it might be!

Date:

Astronomy

Jan. 06, 2005 Rise Set
Actual Time 7:42 AM EST 5:36 PM EST
Civil Twilight 7:14 AM EST 6:04 PM EST
Nautical Twilight 6:43 AM EST 6:36 PM EST
Astronomical Twilight 6:12 AM EST 7:07 PM EST
Moon 3:29 AM EST (1/6) 1:50 PM EST (1/6)
Length of Visible Light 10h 49m
Length of Day
9h 53m
Waning Crescent, 20% of the Moon is Illuminated
Jan 6
Waning Crescent
Jan 10
New
Jan 17
First Quarter
Jan 25
Full
Feb 2
Last Quarter

Hourly Weather History & Observations

Time (EST) Temp. Windchill Dew Point Humidity Pressure Visibility Wind Dir Wind Speed Gust Speed Precip Events Conditions
12:00 AM 50.0 °F - 44.6 °F 82% 29.99 in 10.0 mi Calm Calm - N/A   Scattered Clouds
12:20 AM 50.0 °F - 46.4 °F 87% 29.99 in 10.0 mi Calm Calm - N/A   Mostly Cloudy
12:40 AM 50.0 °F - 46.4 °F 87% 29.98 in 10.0 mi Calm Calm - N/A   Overcast
1:00 AM 50.0 °F - 46.4 °F 87% 29.97 in 10.0 mi Calm Calm - N/A   Overcast
1:20 AM 53.6 °F - 46.4 °F 77% 29.97 in 10.0 mi NE 4.6 mph - N/A   Overcast
2:00 AM 55.4 °F - 48.2 °F 77% 29.95 in 10.0 mi ENE 5.8 mph - N/A   Overcast
2:20 AM 55.4 °F - 48.2 °F 77% 29.94 in 10.0 mi ENE 6.9 mph - N/A   Overcast
3:00 AM 55.4 °F - 48.2 °F 77% 29.94 in 10.0 mi NE 3.5 mph - N/A   Overcast
3:20 AM 55.4 °F - 50.0 °F 82% 29.93 in 10.0 mi Calm Calm - N/A   Overcast
3:40 AM 55.4 °F - 50.0 °F 82% 29.93 in 10.0 mi East 3.5 mph - N/A   Overcast
4:00 AM 59.0 °F - 51.8 °F 77% 29.92 in 10.0 mi Calm Calm - N/A   Overcast
4:20 AM 59.0 °F - 51.8 °F 77% 29.92 in 10.0 mi SSE 6.9 mph - N/A   Overcast
4:40 AM 62.6 °F - 51.8 °F 68% 29.91 in 10.0 mi Calm Calm - N/A   Overcast
5:00 AM 62.6 °F - 53.6 °F 72% 29.91 in 10.0 mi SE 5.8 mph - N/A Rain Light Rain
5:20 AM 62.6 °F - 53.6 °F 72% 29.91 in 10.0 mi Calm Calm - N/A   Overcast
5:40 AM 60.8 °F - 53.6 °F 77% 29.90 in 10.0 mi NE 4.6 mph - N/A   Overcast
6:00 AM 60.8 °F - 53.6 °F 77% 29.91 in 10.0 mi Calm Calm - N/A   Overcast
6:20 AM 60.8 °F - 53.6 °F 77% 29.91 in 10.0 mi Calm Calm - N/A Rain Light Rain
6:40 AM 62.6 °F - 53.6 °F 72% 29.92 in 10.0 mi SE 5.8 mph - N/A Rain Light Rain
7:00 AM 62.6 °F - 53.6 °F 72% 29.91 in 10.0 mi ESE 4.6 mph - N/A   Overcast
7:20 AM 62.6 °F - 53.6 °F 72% 29.92 in 10.0 mi Calm Calm - N/A   Overcast
7:40 AM 62.6 °F - 51.8 °F 68% 29.91 in 10.0 mi WSW 10.4 mph - N/A   Overcast
8:00 AM 64.4 °F - 50.0 °F 59% 29.91 in 10.0 mi SW 3.5 mph - N/A   Overcast
8:20 AM 66.2 °F - 50.0 °F 56% 29.91 in 10.0 mi Calm Calm - N/A   Overcast
8:40 AM 66.2 °F - 50.0 °F 56% 29.91 in 10.0 mi SSW 5.8 mph - N/A   Overcast
9:00 AM 64.4 °F - 51.8 °F 64% 29.90 in 10.0 mi SE 5.8 mph - N/A   Overcast
9:20 AM 64.4 °F - 51.8 °F 64% 29.91 in 10.0 mi SSE 3.5 mph - N/A   Overcast
9:40 AM 64.4 °F - 51.8 °F 64% 29.91 in 10.0 mi WSW 6.9 mph - N/A   Overcast
10:00 AM 64.4 °F - 51.8 °F 64% 29.91 in 10.0 mi SSW 4.6 mph - N/A   Overcast
10:20 AM 64.4 °F - 53.6 °F 68% 29.92 in 7.0 mi SW 8.1 mph - N/A   Light Drizzle
10:40 AM 64.4 °F - 53.6 °F 68% 29.92 in 10.0 mi Calm Calm - N/A   Overcast
11:00 AM 60.8 °F - 51.8 °F 72% 29.92 in 10.0 mi NNW 8.1 mph - N/A   Overcast
11:20 AM 59.0 °F - 51.8 °F 77% 29.96 in 5.0 mi WNW 12.7 mph 17.3 mph 0.02 in Rain Heavy Rain
11:40 AM 55.4 °F - 51.8 °F 88% 29.97 in 5.0 mi Calm Calm - 0.04 in Rain Rain
12:00 PM 55.4 °F - 53.6 °F 94% 29.96 in 5.0 mi ENE 5.8 mph - N/A Rain Light Rain
12:20 PM 57.2 °F - 53.6 °F 88% 29.94 in 10.0 mi SSE 4.6 mph - 0.01 in   Light Drizzle
1:00 PM 59.0 °F - 53.6 °F 82% 29.92 in 10.0 mi North 3.5 mph - N/A   Overcast
1:20 PM 59.0 °F - 53.6 °F 82% 29.92 in 10.0 mi Calm Calm - N/A   Overcast
1:40 PM 60.8 °F - 53.6 °F 77% 29.91 in 10.0 mi East 4.6 mph - N/A Rain Light Rain
2:00 PM 60.8 °F - 53.6 °F 77% 29.90 in 10.0 mi East 3.5 mph - N/A   Overcast
2:20 PM 60.8 °F - 53.6 °F 77% 29.91 in 10.0 mi ENE 3.5 mph - N/A   Overcast
3:00 PM 62.6 °F - 53.6 °F 72% 29.90 in 10.0 mi NE 4.6 mph - N/A   Mostly Cloudy
3:20 PM 62.6 °F - 51.8 °F 68% 29.92 in 10.0 mi NE 3.5 mph - N/A   Mostly Cloudy
4:00 PM 60.8 °F - 46.4 °F 59% 29.92 in 10.0 mi NNE 9.2 mph - N/A   Scattered Clouds
4:20 PM 59.0 °F - 44.6 °F 59% 29.94 in 10.0 mi NE 4.6 mph - N/A   Clear
4:40 PM 59.0 °F - 42.8 °F 55% 29.94 in 10.0 mi North 10.4 mph - N/A   Scattered Clouds
5:00 PM 57.2 °F - 42.8 °F 59% 29.95 in 10.0 mi North 5.8 mph - N/A   Scattered Clouds
5:20 PM 57.2 °F - 41.0 °F 55% 29.97 in 10.0 mi North 8.1 mph - N/A   Clear
5:40 PM 57.2 °F - 39.2 °F 51% 29.97 in 10.0 mi North 5.8 mph - N/A   Clear
6:00 PM 55.4 °F - 37.4 °F 51% 29.97 in 10.0 mi Calm Calm - N/A   Clear
6:20 PM 51.8 °F - 42.8 °F 71% 29.95 in 10.0 mi SSE 4.6 mph - N/A   Scattered Clouds
7:00 PM 53.6 °F - 37.4 °F 54% 30.00 in 10.0 mi WSW 4.6 mph - N/A   Scattered Clouds
7:20 PM 53.6 °F - 37.4 °F 54% 30.01 in 10.0 mi Calm Calm - N/A   Scattered Clouds
8:00 PM 46.4 °F - 41.0 °F 81% 30.01 in 10.0 mi Calm Calm - N/A   Clear
8:20 PM 46.4 °F 43.5 °F 41.0 °F 81% 30.02 in 10.0 mi WSW 5.8 mph - N/A   Clear
8:40 PM 46.4 °F - 41.0 °F 81% 30.04 in 10.0 mi Calm Calm - N/A   Clear
9:00 PM 46.4 °F - 41.0 °F 81% 30.04 in 10.0 mi Calm Calm - N/A   Clear
9:20 PM 44.6 °F - 41.0 °F 87% 30.04 in 10.0 mi Calm Calm - N/A   Clear
9:40 PM 46.4 °F - 39.2 °F 76% 30.05 in 10.0 mi Calm Calm - N/A   Clear
10:00 PM 44.6 °F - 41.0 °F 87% 30.05 in 10.0 mi Calm Calm - N/A   Clear
10:20 PM 46.4 °F 44.3 °F 39.2 °F 76% 30.06 in 10.0 mi WSW 4.6 mph - N/A   Clear
10:40 PM 46.4 °F - 37.4 °F 71% 30.07 in 10.0 mi Calm Calm - N/A   Clear
11:00 PM 44.6 °F - 37.4 °F 76% 30.08 in 10.0 mi Calm Calm - N/A   Clear
11:20 PM 44.6 °F - 37.4 °F 76% 30.09 in 10.0 mi Calm Calm - N/A   Clear
11:40 PM 41.0 °F - 35.6 °F 81% 30.09 in 10.0 mi Calm Calm - N/A   Clear